Wind_Speed
8 3 7 11 9 6 8 11 13 15 10 5 4 6 12 19 22 20 26 30 32 29 24 28 29 28 27 22 24 21 19 16 18 19 17 14 9 11 8 9 7 5 4 7
5 6 12 4 13 14 12 10 6 6 6 7 5 5 9 9 19 27 29 31 32 27 28 28 31 29 28 24 26 22 20 19 17 13 13 13 11 8 5 5 6 6 2 4
6 12 5 6 12 11 5 6 3 6 7 8 8 3 6 6 9 23 29 33 33 31 35 31 31 29 29 27 28 24 24 21 18 12 14 17 11 7 10 9 7 7 3 3
6 15 9 5 8 8 6 7 8 6 7 5 6 5 6 3 7 13 27 33 37 35 37 34 33 32 32 30 28 24 24 25 21 16 20 19 15 9 5 5 7 7 5 4
9 4 5 5 12 13 13 14 11 7 13 4 6 4 7 5 11 10 24 33 40 40 40 39 38 35 35 33 30 25 21 26 23 20 22 19 16 14 14 9 6 12 7 5
9 8 5 9 7 7 8 12 6 4 4 1 13 6 5 10 25 20 27 29 42 43 41 42 39 37 37 36 32 28 23 24 23 23 24 21 19 13 14 12 8 11 8 6
7 8 5 6 2 2 8 7 0 1 4 7 5 3 8 23 19 11 22 28 39 45 41 44 43 42 41 40 37 32 26 23 25 24 24 24 19 15 15 11 12 11 7 8
4 8 3 3 7 7 3 8 6 4 2 4 3 5 6 13 22 10 9 21 35 43 46 43 44 45 43 42 38 36 31 26 23 24 23 25 22 16 18 15 11 13 11 11
5 8 4 3 3 8 5 3 7 6 2 3 4 6 9 5 8 9 15 22 35 41 46 45 41 46 46 42 39 39 34 27 25 21 21 23 27 22 18 17 17 16 14 9
7 3 5 8 1 3 8 4 1 4 3 4 5 4 5 5 9 8 11 22 19 20 22 40 42 42 47 46 38 37 35 25 21 23 20 20 24 23 23 19 15 14 15 14
7 4 11 2 5 11 1 2 4 6 6 5 3 6 9 11 11 14 13 19 25 27 14 22 33 41 43 43 39 33 34 30 27 23 18 19 21 22 21 22 19 16 15 15
10 6 5 10 6 5 9 13 7 5 6 2 5 6 4 11 14 19 26 23 27 37 34 17 25 36 40 43 35 19 37 33 27 22 19 19 19 19 20 19 19 17 17 17
7 2 5 10 8 4 5 4 6 5 4 5 5 6 2 10 10 25 16 17 33 36 37 35 40 37 31 45 43 29 29 38 26 22 21 19 17 15 15 16 18 19 19 18
8 4 7 7 8 3 2 5 5 7 4 3 6 7 4 8 12 14 20 25 36 45 47 42 36 35 35 42 41 33 23 39 25 20 19 19 18 14 15 11 14 14 15 18
5 5 5 5 5 5 6 8 13 8 7 6 8 5 3 8 11 24 34 38 39 44 48 39 38 38 36 41 40 39 34 33 23 18 15 15 14 13 12 14 13 13 14 15
6 3 2 6 6 7 6 7 9 5 4 3 8 7 7 4 25 26 35 39 42 41 36 31 37 38 32 44 37 36 31 25 18 15 14 12 13 14 14 15 17 17 16 13
3 2 3 5 5 5 6 7 3 6 7 7 6 10 7 4 10 14 17 27 37 35 32 31 32 35 35 42 40 36 28 21 18 19 16 13 12 11 11 11 10 9 8 9
4 2 2 3 5 4 10 6 4 5 2 5 4 7 9 20 22 24 19 30 23 23 31 35 35 35 41 44 40 33 27 23 20 14 10 10 9 9 10 9 8 8 7 3
8 4 1 3 3 6 10 6 2 4 5 4 7 17 25 27 30 17 19 24 30 28 22 21 40 43 41 40 36 30 28 23 15 13 14 15 15 15 16 15 11 6 3 1
3 5 4 3 1 5 9 5 5 4 3 7 8 9 19 15 5 4 24 27 32 27 20 21 23 36 38 35 33 30 26 22 21 22 22 20 18 17 15 10 6 4 1 3
4 3 2 1 4 7 4 13 12 4 8 4 13 3 16 6 10 28 29 31 34 31 26 26 24 27 33 32 31 30 28 27 26 24 22 19 16 11 9 8 6 1 4 4
4 4 1 2 2 2 14 9 2 7 6 17 12 11 10 19 21 23 21 26 14 14 20 25 24 27 29 32 33 33 32 30 25 23 19 16 14 13 11 6 2 2 0 4
1 4 5 5 5 5 11 6 22 24 19 12 27 19 25 24 22 18 16 13 21 29 20 13 15 22 27 30 32 34 32 28 24 20 16 13 12 10 7 3 2 1 5 10
4 5 3 3 4 6 18 7 16 22 25 18 20 32 32 31 25 22 23 22 33 12 25 35 18 22 25 28 29 28 28 24 20 17 14 12 9 6 6 4 2 5 8 2
5 3 2 3 7 16 13 8 18 25 21 31 15 32 32 35 32 32 34 30 39 46 49 39 26 28 25 26 23 21 18 18 18 17 14 10 10 9 6 6 6 5 4 2
6 6 4 6 10 7 12 14 13 19 18 22 9 26 31 35 44 39 35 38 39 36 35 35 33 35 30 26 22 21 21 21 19 12 9 12 12 11 9 7 10 8 6 5
Wind_Direction
237 105 216 185 192 187 155 140 187 198 201 142 222 128 176 182 180 194 199 202 206 206 202 188 190 186 186 194 199 200 197 196 172 181 177 189 203 204 201 222 222 224 182 171
347 214 232 198 149 149 159 168 230 318 172 145 191 182 165 200 200 197 202 207 209 204 189 183 187 190 194 197 198 202 201 200 198 190 197 205 204 203 208 227 203 195 179 150
170 246 227 187 141 156 189 214 165 100 45 357 132 353 238 198 209 213 209 209 205 194 184 185 189 197 200 198 199 204 204 204 203 198 202 206 212 219 197 219 199 196 186 191
211 255 237 242 177 139 191 184 168 155 125 189 273 222 290 186 228 201 202 205 201 199 193 190 196 199 204 208 205 210 211 208 208 199 193 198 210 207 191 212 211 211 210 209
246 254 248 239 239 173 214 187 199 132 188 122 234 112 268 170 254 219 210 204 201 203 201 196 199 205 209 207 206 208 215 211 213 214 204 208 220 243 241 251 234 213 238 245
237 268 175 216 257 190 164 179 40 89 110 277 228 153 247 202 222 210 209 198 198 204 204 204 204 207 209 208 209 208 210 214 210 211 212 210 215 221 221 216 227 212 240 236
315 281 269 211 21 19 119 79 230 157 173 214 229 155 224 222 218 211 186 192 195 202 203 205 203 208 209 207 210 209 211 210 207 210 214 216 218 208 210 218 220 211 222 233
192 310 176 223 173 184 155 136 148 195 207 263 349 236 258 224 210 188 168 183 187 199 205 210 211 207 213 212 214 214 213 211 208 212 217 216 220 216 214 222 208 219 247 258
175 265 326 286 253 132 265 159 183 127 66 69 249 290 316 116 128 144 175 168 190 194 204 209 217 214 214 214 213 217 215 214 213 213 215 215 220 220 215 223 224 233 239 256
216 286 220 292 197 265 159 174 68 14 188 241 276 269 237 179 188 210 212 187 180 187 209 211 216 222 219 219 214 217 217 214 210 214 215 216 218 223 225 227 231 232 226 234
146 128 276 200 205 192 80 280 70 121 140 173 191 258 213 201 191 201 225 191 154 172 170 221 221 227 220 220 214 217 216 219 213 213 214 219 218 218 225 228 231 227 234 239
197 163 216 233 271 236 172 201 141 128 259 209 157 273 239 183 182 193 202 145 160 183 204 210 210 222 220 213 186 208 226 220 216 211 213 221 220 220 226 226 225 227 229 236
173 243 279 330 348 9 200 199 151 121 80 227 135 259 325 115 192 200 155 173 188 182 199 208 212 217 231 206 189 134 234 223 213 209 213 214 206 205 212 219 226 239 239 243
126 124 162 200 210 205 310 282 244 136 122 192 218 269 218 178 174 218 154 171 182 186 202 210 203 198 223 216 190 188 188 215 205 207 212 207 205 202 207 218 226 230 238 244
100 187 182 215 230 220 220 224 247 177 192 156 241 300 205 209 161 162 168 165 167 178 196 200 192 197 206 212 199 203 202 203 196 202 205 210 208 205 221 233 231 225 235 253
1 268 141 309 315 354 310 297 262 221 213 201 170 224 219 286 140 145 159 169 175 188 201 196 192 200 205 210 198 202 199 196 196 203 204 200 206 223 222 237 233 231 246 261
35 33 52 278 338 5 340 266 240 222 243 186 162 219 152 80 64 77 137 174 182 190 196 204 205 208 207 208 198 197 195 194 200 202 202 215 202 201 207 204 206 218 244 258
265 76 116 254 35 355 245 287 246 227 222 288 140 176 101 118 97 91 111 165 184 206 209 202 199 204 205 198 192 190 190 194 200 207 203 193 204 189 181 181 181 175 169 143
169 126 197 139 172 288 315 318 273 118 315 337 150 118 125 127 100 75 112 147 148 148 155 170 195 194 188 185 186 188 187 190 188 182 172 169 163 154 147 144 144 158 151 42
96 129 135 96 153 236 244 283 292 300 343 348 108 132 151 147 109 228 132 135 135 135 138 155 173 177 180 180 185 185 183 170 163 157 156 155 152 154 153 154 170 173 160 324
358 8 109 169 215 272 355 300 343 126 221 269 136 145 153 151 186 158 145 144 144 147 149 156 167 182 181 184 186 176 165 159 157 160 164 160 165 166 169 181 183 195 321 330
182 135 167 82 1 267 358 353 2 319 183 144 141 181 138 140 150 158 157 161 171 188 128 149 177 200 191 176 172 165 160 160 167 170 172 175 179 188 192 189 195 330 312 322
339 185 184 150 216 258 305 279 1 7 316 293 150 164 162 149 153 166 183 193 194 165 148 137 190 173 183 171 172 165 163 168 170 178 179 188 199 209 217 231 240 195 291 312
348 343 81 28 265 277 303 13 25 13 21 6 188 160 154 145 148 156 154 156 183 118 141 186 205 178 182 175 175 174 171 170 177 184 185 198 200 200 193 217 257 269 287 193
229 339 149 291 288 323 274 337 348 341 350 23 159 163 155 153 153 151 149 149 170 170 172 191 196 184 181 177 177 181 180 180 189 196 203 190 180 193 199 185 210 227 212 243
190 186 168 220 221 213 271 314 339 324 345 3 101 184 179 174 160 156 161 167 171 176 181 180 177 187 179 183 194 196 189 187 197 212 205 199 203 195 199 187 159 138 127 125
Height
1497 1508 1518 1516 1512 1513 1517 1525 1521 1515 1514 1524 1532 1528 1527 1532 1533 1537 1537 1536 1536 1536 1538 1541 1544 1547 1551 1555 1558 1561 1564 1567 1570 1573 1575 1578 1579 1581 1581 1581 1580 1580 1579 1580
1502 1513 1496 1500 1507 1513 1517 1521 1524 1510 1515 1520 1531 1527 1524 1526 1528 1532 1534 1534 1535 1536 1538 1541 1543 1545 1547 1551 1556 1558 1561 1564 1568 1571 1573 1576 1579 1580 1580 1579 1579 1579 1580 1580
1511 1496 1491 1498 1509 1516 1519 1519 1523 1525 1521 1528 1532 1536 1529 1520 1528 1530 1532 1532 1533 1533 1535 1539 1541 1542 1546 1549 1553 1556 1559 1562 1566 1570 1572 1574 1576 1578 1579 1578 1579 1579 1579 1579
1503 1487 1492 1495 1504 1508 1528 1501 1505 1512 1529 1559 1536 1562 1538 1522 1519 1517 1521 1526 1528 1531 1533 1535 1537 1540 1543 1546 1550 1554 1557 1560 1563 1567 1570 1571 1574 1576 1577 1578 1579 1579 1579 1578
1498 1487 1491 1496 1492 1492 1498 1493 1490 1499 1530 1539 1528 1549 1533 1520 1519 1518 1512 1516 1520 1524 1527 1530 1534 1536 1538 1543 1547 1550 1554 1558 1562 1565 1567 1569 1572 1574 1576 1577 1578 1578 1577 1576
1488 1482 1485 1484 1479 1480 1479 1492 1500 1511 1528 1561 1527 1531 1532 1516 1496 1494 1499 1507 1512 1519 1524 1527 1529 1531 1535 1541 1545 1548 1553 1555 1559 1562 1564 1567 1571 1573 1574 1575 1576 1577 1577 1578
1491 1484 1477 1476 1483 1479 1488 1512 1546 1548 1558 1549 1517 1519 1507 1485 1481 1490 1493 1501 1508 1515 1519 1521 1525 1528 1531 1535 1540 1544 1548 1552 1555 1559 1561 1564 1568 1571 1572 1573 1575 1577 1577 1577
1512 1512 1476 1469 1476 1485 1483 1500 1537 1544 1549 1539 1510 1522 1497 1473 1479 1489 1493 1496 1504 1511 1515 1517 1520 1522 1526 1531 1536 1540 1543 1548 1552 1555 1558 1562 1566 1568 1569 1571 1573 1575 1576 1577
1509 1504 1471 1468 1469 1472 1485 1500 1493 1519 1524 1539 1527 1503 1481 1475 1481 1487 1488 1489 1496 1503 1509 1514 1517 1523 1522 1526 1530 1534 1539 1544 1548 1552 1555 1559 1563 1566 1567 1569 1571 1573 1574 1575
1483 1504 1473 1468 1467 1468 1474 1475 1505 1526 1533 1539 1532 1514 1510 1483 1482 1480 1480 1488 1500 1507 1513 1512 1515 1520 1520 1521 1526 1534 1539 1540 1543 1548 1552 1555 1559 1563 1565 1567 1569 1570 1571 1572
1475 1488 1479 1471 1479 1482 1481 1489 1495 1507 1524 1540 1546 1525 1474 1472 1473 1473 1474 1482 1491 1498 1500 1508 1515 1518 1513 1518 1527 1532 1540 1545 1543 1545 1549 1552 1556 1559 1562 1563 1566 1567 1568 1569
1464 1485 1499 1485 1463 1461 1462 1472 1488 1521 1517 1523 1525 1510 1455 1456 1461 1465 1467 1479 1482 1486 1493 1502 1507 1511 1511 1512 1525 1534 1542 1542 1544 1543 1546 1548 1552 1555 1557 1560 1562 1565 1566 1566
1460 1485 1501 1496 1479 1463 1467 1467 1475 1490 1503 1510 1523 1509 1456 1459 1463 1461 1466 1472 1476 1484 1491 1496 1498 1504 1509 1512 1513 1515 1532 1541 1542 1542 1543 1545 1549 1551 1554 1556 1559 1561 1563 1564
1447 1476 1486 1509 1490 1475 1468 1466 1468 1480 1508 1507 1504 1485 1461 1457 1464 1463 1469 1471 1473 1479 1485 1495 1499 1504 1510 1514 1517 1515 1522 1535 1539 1539 1540 1542 1546 1549 1551 1554 1556 1558 1560 1561
1453 1475 1471 1470 1469 1466 1466 1468 1462 1474 1475 1488 1480 1469 1457 1456 1453 1458 1461 1471 1475 1480 1484 1492 1492 1500 1502 1506 1512 1521 1527 1533 1535 1535 1537 1539 1543 1547 1550 1551 1553 1555 1557 1558
1459 1473 1465 1470 1463 1463 1466 1460 1456 1458 1458 1464 1471 1468 1451 1454 1449 1458 1462 1469 1473 1475 1477 1483 1490 1494 1498 1502 1510 1519 1524 1529 1533 1534 1536 1539 1541 1544 1547 1549 1550 1553 1555 1556
1467 1474 1482 1487 1470 1470 1481 1457 1452 1448 1448 1451 1472 1454 1446 1456 1461 1464 1466 1467 1467 1468 1472 1477 1486 1492 1498 1505 1510 1517 1522 1529 1532 1533 1536 1538 1540 1542 1545 1547 1549 1551 1553 1555
1464 1472 1483 1488 1480 1504 1464 1443 1444 1446 1444 1441 1443 1443 1445 1456 1462 1463 1466 1467 1473 1475 1476 1479 1482 1490 1497 1504 1514 1518 1522 1527 1530 1534 1535 1537 1539 1541 1542 1545 1548 1549 1551 1553
1455 1470 1480 1488 1501 1479 1454 1445 1444 1445 1449 1438 1438 1445 1449 1454 1455 1463 1462 1462 1465 1473 1477 1484 1485 1488 1498 1506 1512 1518 1522 1524 1529 1532 1535 1538 1540 1541 1542 1544 1547 1549 1550 1551
1452 1458 1473 1489 1489 1495 1461 1441 1437 1437 1466 1439 1438 1442 1444 1446 1468 1467 1464 1467 1467 1472 1475 1481 1489 1490 1500 1507 1512 1517 1521 1524 1528 1532 1535 1538 1540 1542 1543 1545 1548 1549 1549 1550
1467 1469 1476 1485 1484 1473 1457 1446 1441 1465 1467 1438 1438 1445 1447 1448 1448 1455 1462 1466 1468 1470 1474 1482 1495 1502 1501 1506 1512 1516 1519 1523 1528 1532 1535 1537 1540 1542 1543 1545 1547 1548 1548 1548
1469 1475 1479 1484 1482 1474 1450 1443 1452 1455 1438 1436 1435 1443 1447 1447 1451 1457 1462 1464 1468 1465 1464 1475 1492 1504 1504 1506 1512 1514 1518 1522 1530 1534 1536 1539 1540 1542 1544 1544 1545 1545 1546 1546
1471 1466 1471 1468 1473 1455 1453 1453 1450 1451 1450 1445 1432 1441 1445 1450 1455 1459 1460 1462 1465 1468 1472 1483 1492 1499 1509 1509 1512 1513 1516 1520 1527 1533 1536 1539 1540 1541 1542 1542 1543 1543 1543 1542
1464 1460 1463 1464 1455 1453 1447 1453 1450 1452 1457 1452 1445 1437 1447 1449 1457 1459 1461 1463 1464 1471 1478 1492 1497 1502 1506 1509 1512 1515 1516 1518 1526 1531 1532 1535 1537 1538 1539 1540 1540 1540 1539 1539
1465 1462 1463 1464 1456 1449 1442 1442 1447 1446 1451 1453 1457 1446 1445 1449 1455 1458 1463 1464 1464 1466 1479 1492 1499 1502 1505 1511 1515 1518 1521 1523 1525 1530 1531 1533 1534 1534 1536 1536 1536 1536 1537 1536
1461 1462 1466 1463 1451 1452 1444 1441 1443 1440 1445 1459 1458 1453 1449 1451 1453 1458 1463 1463 1473 1478 1484 1487 1494 1503 1507 1512 1517 1517 1521 1521 1524 1527 1527 1530 1531 1533 1534 1533 1533 1534 1534 1534